ACA988 CYYC-MMPR

Flight info

Callsign ACA988
Flight time 4h 19m
Altitude 35000
Route UBVAL Q927 SEKOM DCT DBS J9 FFU DCT TBC DCT TUS/N0451F370 J92 VYLLA UT12 CUL UJ7 MZT J141 OBRUG OBRUG1A
Aircraft A320/M-SDE3FGHIRWY/LB1

Departure

Time 2026-04-24 12:42
Airport Calgary International Airport (CYYC)

Arrival

Time 2026-04-24 17:02
Airport Puerto Vallarta International Airport (MMPR)
Time Latitude Longitude Altitude Speed Heading
2026-04-24 12:11 51.13183 -114.01283 3566 ft 0 kts 72°
2026-04-24 12:27 51.13179 -114.01302 3558 ft 4 kts 71°
2026-04-24 12:27 51.13169 -114.01341 3559 ft 4 kts 61°
2026-04-24 12:27 51.13154 -114.01377 3558 ft 4 kts 44°
2026-04-24 12:28 51.13133 -114.01398 3560 ft 4 kts 356°
2026-04-24 12:28 51.13123 -114.01395 3560 ft 0 kts 320°
2026-04-24 12:32 51.13132 -114.01407 3563 ft 3 kts 320°
2026-04-24 12:32 51.13153 -114.01459 3562 ft 8 kts 288°
2026-04-24 12:32 51.13156 -114.01582 3566 ft 13 kts 270°
2026-04-24 12:33 51.13114 -114.01681 3566 ft 11 kts 185°
2026-04-24 12:33 51.13033 -114.01679 3561 ft 12 kts 180°
2026-04-24 12:33 51.12946 -114.01679 3562 ft 13 kts 180°
2026-04-24 12:33 51.12853 -114.01678 3561 ft 14 kts 179°
2026-04-24 12:34 51.12754 -114.01678 3564 ft 14 kts 180°
2026-04-24 12:34 51.12651 -114.01678 3562 ft 15 kts 179°
2026-04-24 12:34 51.12602 -114.01557 3565 ft 15 kts 90°
2026-04-24 12:34 51.12603 -114.01408 3565 ft 12 kts 90°
2026-04-24 12:35 51.12604 -114.01249 3566 ft 20 kts 89°
2026-04-24 12:35 51.12613 -114.01044 3566 ft 17 kts 89°
2026-04-24 12:35 51.12614 -114.00867 3566 ft 15 kts 89°
2026-04-24 12:35 51.12615 -114.00707 3566 ft 17 kts 89°
2026-04-24 12:36 51.12615 -114.00501 3566 ft 18 kts 90°
2026-04-24 12:36 51.12615 -114.00316 3566 ft 15 kts 90°
2026-04-24 12:36 51.12616 -114.00149 3566 ft 18 kts 90°
2026-04-24 12:36 51.12617 -113.99940 3566 ft 18 kts 90°
2026-04-24 12:37 51.12616 -113.99756 3566 ft 15 kts 89°
2026-04-24 12:37 51.12617 -113.99596 3566 ft 15 kts 90°
2026-04-24 12:37 51.12574 -113.99443 3558 ft 16 kts 167°
2026-04-24 12:37 51.12460 -113.99445 3562 ft 17 kts 180°
2026-04-24 12:38 51.12345 -113.99445 3560 ft 16 kts 180°
2026-04-24 12:38 51.12233 -113.99447 3566 ft 16 kts 180°
2026-04-24 12:38 51.12126 -113.99445 3563 ft 15 kts 180°
2026-04-24 12:39 51.11733 -113.99447 3564 ft 19 kts 180°
2026-04-24 12:39 51.11585 -113.99447 3565 ft 21 kts 180°
2026-04-24 12:39 51.11447 -113.99448 3559 ft 19 kts 180°
2026-04-24 12:40 51.11315 -113.99448 3567 ft 18 kts 180°
2026-04-24 12:40 51.11192 -113.99448 3570 ft 17 kts 180°
2026-04-24 12:40 51.11079 -113.99446 3572 ft 15 kts 171°
2026-04-24 12:40 51.11034 -113.99321 3575 ft 13 kts 88°
2026-04-24 12:41 51.11035 -113.99196 3577 ft 10 kts 91°
2026-04-24 12:41 51.11036 -113.99067 3577 ft 12 kts 72°
2026-04-24 12:41 51.11104 -113.99035 3567 ft 10 kts 360°
2026-04-24 12:41 51.11109 -113.99035 3570 ft 4 kts 360°
2026-04-24 12:42 51.11384 -113.99036 3565 ft 74 kts
2026-04-24 12:42 51.12091 -113.99035 3564 ft 127 kts
2026-04-24 12:42 51.13098 -113.99046 3745 ft 152 kts 354°
2026-04-24 12:42 51.14165 -113.99064 4520 ft 153 kts 354°
2026-04-24 12:43 51.15229 -113.99039 5328 ft 154 kts 358°
2026-04-24 12:43 51.16260 -113.98210 5636 ft 194 kts 40°
2026-04-24 12:43 51.16728 -113.95947 5852 ft 243 kts 84°
2026-04-24 12:43 51.16143 -113.93222 6094 ft 283 kts 123°
2026-04-24 12:44 51.14542 -113.91194 6396 ft 307 kts 161°
2026-04-24 12:44 51.12439 -113.90753 6944 ft 306 kts 192°
2026-04-24 12:44 51.10325 -113.91292 7597 ft 310 kts 195°
2026-04-24 12:44 51.08179 -113.91885 8272 ft 316 kts 195°
2026-04-24 12:45 51.05994 -113.92496 8940 ft 322 kts 195°
2026-04-24 12:45 51.03764 -113.93107 9616 ft 329 kts 191°
2026-04-24 12:45 51.01445 -113.93322 10233 ft 339 kts 182°
2026-04-24 12:45 50.99002 -113.93167 10403 ft 363 kts 177°
2026-04-24 12:46 50.96441 -113.92791 10574 ft 385 kts 175°
2026-04-24 12:46 50.93749 -113.92318 11090 ft 393 kts 174°
2026-04-24 12:46 50.91020 -113.91849 11753 ft 396 kts 174°
2026-04-24 12:46 50.88267 -113.91424 12435 ft 399 kts 175°
2026-04-24 12:47 50.85483 -113.91056 13118 ft 402 kts 175°
2026-04-24 12:47 50.82680 -113.90731 13807 ft 405 kts 176°
2026-04-24 12:47 50.79852 -113.90419 14411 ft 408 kts 176°
2026-04-24 12:47 50.77006 -113.90108 15012 ft 411 kts 175°
2026-04-24 12:48 50.74145 -113.89795 15585 ft 413 kts 175°
2026-04-24 12:48 50.71268 -113.89475 16149 ft 416 kts 175°
2026-04-24 12:48 50.68371 -113.89145 16718 ft 419 kts 174°
2026-04-24 12:48 50.65455 -113.88808 17275 ft 421 kts 174°
2026-04-24 12:49 50.62524 -113.88386 17822 ft 423 kts 169°
2026-04-24 12:49 50.59622 -113.87530 18371 ft 426 kts 166°
2026-04-24 12:49 50.56708 -113.86634 18857 ft 428 kts 166°
2026-04-24 12:49 50.53777 -113.85737 19353 ft 430 kts 166°
2026-04-24 12:50 50.50833 -113.84839 19872 ft 432 kts 167°
2026-04-24 12:50 50.47879 -113.83938 20375 ft 434 kts 167°
2026-04-24 12:50 50.44913 -113.83034 20886 ft 435 kts 167°
2026-04-24 12:50 50.41932 -113.82130 21387 ft 437 kts 167°
2026-04-24 12:51 50.38945 -113.81224 21866 ft 438 kts 167°
2026-04-24 12:51 50.35947 -113.80311 22331 ft 440 kts 167°
2026-04-24 12:51 50.32934 -113.79399 22793 ft 442 kts 167°
2026-04-24 12:51 50.29910 -113.78486 23246 ft 444 kts 167°
2026-04-24 12:52 50.26872 -113.77572 23687 ft 446 kts 167°
2026-04-24 12:52 50.23816 -113.76656 24047 ft 448 kts 167°
2026-04-24 12:52 50.20747 -113.75734 24382 ft 450 kts 167°
2026-04-24 12:52 50.17710 -113.74815 24706 ft 452 kts 167°
2026-04-24 12:53 50.14621 -113.73881 25029 ft 453 kts 167°
2026-04-24 12:53 50.11517 -113.72950 25351 ft 455 kts 167°
2026-04-24 12:53 50.08401 -113.72019 25677 ft 457 kts 167°
2026-04-24 12:53 50.05277 -113.71085 25995 ft 458 kts 167°
2026-04-24 12:54 50.02136 -113.70144 26305 ft 460 kts 167°
2026-04-24 12:54 49.98992 -113.69202 26603 ft 461 kts 167°
2026-04-24 12:54 49.95837 -113.68258 26907 ft 463 kts 166°
2026-04-24 12:54 49.92663 -113.67310 27199 ft 465 kts 166°
2026-04-24 12:55 49.89478 -113.66362 27489 ft 467 kts 166°
2026-04-24 12:55 49.86284 -113.65414 27769 ft 468 kts 166°
2026-04-24 12:55 49.83079 -113.64464 28048 ft 470 kts 166°
2026-04-24 12:55 49.79858 -113.63514 28322 ft 471 kts 166°
2026-04-24 12:56 49.76632 -113.62567 28586 ft 473 kts 166°
2026-04-24 12:56 49.73389 -113.61615 28834 ft 474 kts 166°
2026-04-24 12:56 49.70143 -113.60663 29084 ft 476 kts 166°
2026-04-24 12:56 49.66884 -113.59706 29320 ft 477 kts 166°
2026-04-24 12:57 49.63620 -113.58748 29554 ft 478 kts 166°
2026-04-24 12:57 49.60341 -113.57804 29784 ft 480 kts 166°
2026-04-24 12:57 49.57057 -113.56888 30009 ft 481 kts 166°
2026-04-24 12:57 49.53760 -113.55984 30256 ft 481 kts 166°
2026-04-24 12:58 49.50470 -113.55092 30521 ft 480 kts 167°
2026-04-24 12:58 49.47183 -113.54201 30771 ft 479 kts 167°
2026-04-24 12:58 49.43905 -113.53306 31002 ft 478 kts 166°
2026-04-24 12:58 49.40629 -113.52406 31238 ft 478 kts 166°
2026-04-24 12:59 49.37355 -113.51509 31470 ft 478 kts 167°
2026-04-24 12:59 49.34079 -113.50613 31703 ft 478 kts 167°
2026-04-24 12:59 49.30803 -113.49724 31935 ft 478 kts 167°
2026-04-24 12:59 49.27527 -113.48838 32143 ft 478 kts 167°
2026-04-24 13:00 49.24252 -113.47951 32366 ft 478 kts 167°
2026-04-24 13:00 49.20976 -113.47063 32573 ft 478 kts 167°
2026-04-24 13:00 49.17693 -113.46174 32782 ft 479 kts 167°
2026-04-24 13:00 49.14411 -113.45285 32987 ft 479 kts 167°
2026-04-24 13:01 49.11171 -113.44405 33189 ft 480 kts 167°
2026-04-24 13:01 49.07884 -113.43513 33387 ft 480 kts 167°
2026-04-24 13:01 49.04548 -113.42613 33582 ft 481 kts 167°
2026-04-24 13:01 49.01291 -113.41739 33772 ft 482 kts 167°
2026-04-24 13:02 48.97988 -113.40853 33965 ft 482 kts 168°
2026-04-24 13:02 48.94684 -113.39965 34147 ft 483 kts 168°
2026-04-24 13:02 48.91324 -113.39061 34303 ft 484 kts 168°
2026-04-24 13:02 48.88012 -113.38169 34478 ft 484 kts 168°
2026-04-24 13:03 48.84745 -113.37289 34657 ft 483 kts 168°
2026-04-24 13:03 48.81391 -113.36386 34844 ft 483 kts 168°
2026-04-24 13:03 48.78122 -113.35513 35017 ft 482 kts 168°
2026-04-24 13:03 48.74819 -113.34635 35146 ft 482 kts 168°
2026-04-24 13:04 48.71517 -113.33760 35178 ft 481 kts 168°
2026-04-24 13:04 48.64923 -113.32015 35177 ft 481 kts 168°
2026-04-24 13:05 48.58338 -113.30267 35175 ft 480 kts 168°
2026-04-24 13:05 48.51771 -113.28529 35173 ft 478 kts 169°
2026-04-24 13:06 48.45221 -113.26808 35175 ft 477 kts 169°
2026-04-24 13:06 48.38679 -113.25085 35178 ft 477 kts 169°
2026-04-24 13:07 48.32141 -113.23375 35180 ft 477 kts 169°
2026-04-24 13:07 48.25609 -113.21663 35179 ft 477 kts 169°
2026-04-24 13:08 48.19071 -113.19951 35182 ft 476 kts 169°
2026-04-24 13:08 48.12538 -113.18249 35185 ft 476 kts 169°
2026-04-24 13:09 48.02749 -113.15708 35187 ft 476 kts 170°
2026-04-24 13:09 47.96226 -113.14023 35193 ft 476 kts 170°
2026-04-24 13:10 47.89703 -113.12344 35193 ft 475 kts 170°
2026-04-24 13:10 47.83183 -113.10677 35194 ft 475 kts 170°
2026-04-24 13:11 47.76672 -113.09005 35198 ft 475 kts 170°
2026-04-24 13:11 47.70166 -113.07331 35200 ft 474 kts 170°
2026-04-24 13:12 47.63669 -113.05668 35200 ft 474 kts 170°
2026-04-24 13:12 47.57177 -113.04010 35202 ft 473 kts 170°
2026-04-24 13:13 47.50679 -113.02351 35199 ft 474 kts 170°
2026-04-24 13:13 47.44177 -113.00714 35202 ft 474 kts 171°
2026-04-24 13:14 47.37676 -112.99080 35200 ft 474 kts 171°
2026-04-24 13:14 47.31171 -112.97446 35198 ft 474 kts 171°
2026-04-24 13:15 47.25763 -112.96083 35198 ft 474 kts 171°
2026-04-24 13:15 47.19257 -112.94440 35197 ft 474 kts 171°
2026-04-24 13:16 47.12753 -112.92809 35187 ft 474 kts 171°
2026-04-24 13:16 47.06250 -112.91180 35176 ft 474 kts 171°
2026-04-24 13:17 46.99744 -112.89563 35172 ft 474 kts 171°
2026-04-24 13:17 46.93239 -112.87960 35166 ft 474 kts 171°
2026-04-24 13:18 46.86727 -112.86352 35161 ft 474 kts 171°
2026-04-24 13:18 46.80213 -112.84737 35163 ft 475 kts 171°
2026-04-24 13:19 46.73701 -112.83120 35166 ft 475 kts 172°
2026-04-24 13:19 46.67182 -112.81516 35165 ft 475 kts 172°
2026-04-24 13:20 46.60669 -112.79926 35167 ft 475 kts 172°
2026-04-24 13:20 46.54152 -112.78340 35165 ft 475 kts 172°
2026-04-24 13:21 46.47639 -112.76749 35167 ft 475 kts 172°
2026-04-24 13:21 46.41127 -112.75163 35169 ft 474 kts 172°
2026-04-24 13:22 46.34617 -112.73573 35169 ft 475 kts 172°
2026-04-24 13:22 46.28097 -112.71982 35176 ft 475 kts 173°
2026-04-24 13:23 46.21578 -112.70404 35141 ft 475 kts 173°
2026-04-24 13:23 46.15059 -112.68833 35100 ft 474 kts 173°
2026-04-24 13:24 46.08553 -112.67262 35064 ft 474 kts 173°
2026-04-24 13:24 46.02050 -112.65707 35027 ft 474 kts 173°
2026-04-24 13:25 45.95546 -112.64152 35013 ft 474 kts 173°
2026-04-24 13:25 45.89042 -112.62591 35015 ft 474 kts 173°
2026-04-24 13:26 45.82533 -112.61037 35030 ft 474 kts 174°
2026-04-24 13:26 45.76076 -112.59515 35051 ft 473 kts 174°
2026-04-24 13:27 45.69578 -112.57975 35069 ft 474 kts 174°
2026-04-24 13:27 45.63078 -112.56421 35048 ft 473 kts 174°
2026-04-24 13:28 45.56578 -112.54882 35035 ft 473 kts 174°
2026-04-24 13:28 45.50075 -112.53360 35034 ft 473 kts 175°
2026-04-24 13:29 45.43583 -112.51831 35033 ft 473 kts 175°
2026-04-24 13:29 45.37082 -112.50297 34975 ft 473 kts 175°
2026-04-24 13:30 45.30580 -112.48773 34963 ft 473 kts 175°
2026-04-24 13:30 45.24081 -112.47264 34964 ft 473 kts 175°
2026-04-24 13:31 45.17584 -112.45749 34968 ft 473 kts 175°
2026-04-24 13:31 45.11088 -112.44238 34979 ft 473 kts 175°
2026-04-24 13:32 45.04596 -112.42738 34993 ft 473 kts 175°
2026-04-24 13:32 44.98104 -112.41239 35002 ft 473 kts 175°
2026-04-24 13:33 44.91651 -112.39748 35009 ft 472 kts 176°
2026-04-24 13:33 44.85157 -112.38252 34997 ft 472 kts 176°
2026-04-24 13:34 44.78670 -112.36767 34994 ft 472 kts 176°
2026-04-24 13:34 44.72184 -112.35286 34971 ft 472 kts 176°
2026-04-24 13:35 44.65698 -112.33802 34956 ft 472 kts 176°
2026-04-24 13:35 44.59218 -112.32320 34944 ft 472 kts 176°
2026-04-24 13:36 44.52727 -112.30833 34939 ft 473 kts 176°
2026-04-24 13:36 44.46229 -112.29359 34937 ft 473 kts 176°
2026-04-24 13:37 44.39728 -112.27887 34945 ft 474 kts 176°
2026-04-24 13:37 44.33221 -112.26414 34948 ft 474 kts 177°
2026-04-24 13:38 44.26708 -112.24941 34952 ft 474 kts 177°
2026-04-24 13:38 44.20202 -112.23477 34951 ft 473 kts 177°
2026-04-24 13:39 44.13706 -112.22019 34946 ft 473 kts 177°
2026-04-24 13:39 44.07205 -112.20803 34953 ft 467 kts 184°
2026-04-24 13:40 44.00718 -112.20323 34957 ft 466 kts 184°
2026-04-24 13:40 43.94236 -112.19859 34964 ft 466 kts 184°
2026-04-24 13:41 43.87760 -112.19391 34969 ft 465 kts 184°
2026-04-24 13:41 43.81300 -112.18906 34966 ft 465 kts 184°
2026-04-24 13:42 43.74848 -112.18426 34977 ft 464 kts 184°
2026-04-24 13:42 43.68449 -112.17958 34981 ft 463 kts 184°
2026-04-24 13:43 43.62024 -112.17490 34982 ft 462 kts 184°
2026-04-24 13:43 43.55620 -112.17021 34983 ft 461 kts 184°
2026-04-24 13:44 43.49217 -112.16558 34979 ft 460 kts 185°
2026-04-24 13:44 43.42823 -112.16099 34979 ft 459 kts 185°
2026-04-24 13:45 43.36443 -112.15636 34972 ft 459 kts 185°
2026-04-24 13:45 43.30067 -112.15170 34967 ft 459 kts 185°
2026-04-24 13:46 43.23694 -112.14717 34960 ft 459 kts 185°
2026-04-24 13:46 43.17324 -112.14266 34948 ft 458 kts 185°
2026-04-24 13:47 43.10955 -112.13808 34938 ft 458 kts 185°
2026-04-24 13:47 43.04595 -112.13349 34933 ft 458 kts 185°
2026-04-24 13:48 42.98235 -112.12899 34928 ft 457 kts 185°
2026-04-24 13:48 42.91889 -112.12452 34922 ft 456 kts 185°
2026-04-24 13:49 42.85552 -112.11998 34920 ft 455 kts 185°
2026-04-24 13:49 42.79231 -112.11549 34917 ft 454 kts 185°
2026-04-24 13:50 42.72932 -112.11103 34912 ft 453 kts 185°
2026-04-24 13:50 42.66677 -112.10659 34895 ft 453 kts 185°
2026-04-24 13:51 42.60382 -112.10212 34897 ft 453 kts 185°
2026-04-24 13:51 42.54091 -112.09764 34902 ft 453 kts 186°
2026-04-24 13:52 42.47800 -112.09326 34895 ft 452 kts 186°
2026-04-24 13:52 42.41513 -112.08882 34889 ft 452 kts 186°
2026-04-24 13:53 42.35228 -112.08441 34879 ft 452 kts 186°
2026-04-24 13:53 42.28948 -112.08006 34871 ft 452 kts 186°
2026-04-24 13:54 42.22670 -112.07577 34875 ft 452 kts 186°
2026-04-24 13:54 42.16389 -112.07142 34873 ft 452 kts 186°
2026-04-24 13:55 42.10121 -112.06709 34872 ft 451 kts 186°
2026-04-24 13:55 42.03844 -112.06275 34877 ft 452 kts 186°
2026-04-24 13:56 41.97570 -112.05837 34891 ft 451 kts 186°
2026-04-24 13:56 41.91298 -112.05405 34891 ft 452 kts 186°
2026-04-24 13:57 41.85016 -112.04960 34915 ft 452 kts 186°
2026-04-24 13:57 41.78732 -112.04517 34917 ft 452 kts 186°
2026-04-24 13:58 41.72454 -112.04094 34913 ft 452 kts 186°
2026-04-24 13:58 41.66172 -112.03677 34930 ft 452 kts 186°
2026-04-24 13:59 41.59891 -112.03251 34939 ft 452 kts 186°
2026-04-24 13:59 41.54675 -112.02879 34935 ft 451 kts 186°
2026-04-24 14:00 41.48403 -112.02451 34936 ft 451 kts 186°
2026-04-24 14:00 41.42127 -112.02034 34927 ft 452 kts 185°
2026-04-24 14:01 41.35847 -112.01615 34902 ft 451 kts 185°
2026-04-24 14:01 41.29568 -112.01192 34911 ft 452 kts 185°
2026-04-24 14:02 41.23290 -112.00761 34908 ft 452 kts 185°
2026-04-24 14:02 41.17008 -112.00330 34906 ft 452 kts 185°
2026-04-24 14:03 41.10722 -111.99909 34921 ft 452 kts 185°
2026-04-24 14:03 41.04436 -111.99479 34922 ft 452 kts 185°
2026-04-24 14:04 40.98155 -111.99060 34909 ft 452 kts 185°
2026-04-24 14:04 40.91875 -111.98645 34913 ft 451 kts 185°
2026-04-24 14:05 40.85650 -111.98236 34930 ft 451 kts 185°
2026-04-24 14:05 40.79387 -111.97802 34941 ft 451 kts 184°
2026-04-24 14:06 40.73123 -111.97338 34944 ft 451 kts 184°
2026-04-24 14:06 40.66857 -111.96881 34961 ft 451 kts 184°
2026-04-24 14:07 40.60594 -111.96428 34960 ft 451 kts 184°
2026-04-24 14:07 40.54337 -111.95981 34961 ft 450 kts 184°
2026-04-24 14:08 40.48082 -111.95530 34942 ft 450 kts 184°
2026-04-24 14:08 40.41814 -111.95080 34934 ft 451 kts 184°
2026-04-24 14:09 40.35555 -111.94627 34956 ft 451 kts 184°
2026-04-24 14:09 40.29295 -111.94175 34964 ft 451 kts 184°
2026-04-24 14:10 40.23017 -111.93508 34967 ft 454 kts 180°
2026-04-24 14:10 40.16741 -111.92367 34964 ft 456 kts 178°
2026-04-24 14:11 40.10465 -111.91149 34955 ft 456 kts 179°
2026-04-24 14:12 40.01044 -111.89503 34945 ft 455 kts 180°
2026-04-24 14:12 39.94766 -111.88462 34937 ft 455 kts 180°
2026-04-24 14:13 39.88476 -111.87414 34931 ft 456 kts 180°
2026-04-24 14:13 39.82186 -111.86356 34925 ft 456 kts 180°
2026-04-24 14:14 39.75881 -111.85290 34928 ft 457 kts 180°
2026-04-24 14:14 39.66416 -111.83683 34935 ft 457 kts 180°
2026-04-24 14:15 39.60103 -111.82631 34940 ft 457 kts 181°
2026-04-24 14:15 39.53787 -111.81577 34943 ft 457 kts 181°
2026-04-24 14:16 39.47475 -111.80513 34940 ft 457 kts 181°
2026-04-24 14:17 39.38011 -111.78937 34935 ft 457 kts 181°
2026-04-24 14:17 39.28553 -111.77358 34936 ft 457 kts 181°
2026-04-24 14:18 39.22246 -111.76309 34935 ft 457 kts 181°
2026-04-24 14:18 39.15987 -111.75268 34943 ft 457 kts 181°
2026-04-24 14:19 39.09680 -111.74222 34946 ft 457 kts 181°
2026-04-24 14:19 39.03373 -111.73183 34948 ft 457 kts 181°
2026-04-24 14:20 38.97066 -111.72150 34946 ft 457 kts 181°
2026-04-24 14:20 38.90762 -111.71105 34945 ft 457 kts 181°
2026-04-24 14:21 38.84459 -111.70062 34945 ft 457 kts 181°
2026-04-24 14:21 38.78156 -111.69030 34942 ft 456 kts 181°
2026-04-24 14:22 38.71853 -111.68007 34948 ft 457 kts 181°
2026-04-24 14:23 38.62397 -111.66461 34949 ft 457 kts 181°
2026-04-24 14:23 38.56090 -111.65424 34952 ft 457 kts 181°
2026-04-24 14:24 38.49783 -111.64401 34952 ft 457 kts 181°
2026-04-24 14:24 38.43479 -111.63382 34953 ft 457 kts 181°
2026-04-24 14:25 38.37172 -111.62357 34961 ft 456 kts 181°
2026-04-24 14:25 38.30871 -111.61331 34957 ft 456 kts 181°
2026-04-24 14:26 38.24578 -111.60315 34953 ft 455 kts 181°
2026-04-24 14:26 38.18291 -111.59302 34944 ft 455 kts 181°
2026-04-24 14:27 38.12015 -111.58281 34944 ft 455 kts 181°
2026-04-24 14:27 38.05744 -111.57270 34935 ft 454 kts 181°
2026-04-24 14:28 37.99484 -111.56271 34921 ft 453 kts 181°
2026-04-24 14:28 37.93234 -111.55273 34917 ft 452 kts 181°
2026-04-24 14:29 37.86991 -111.54269 34914 ft 452 kts 181°
2026-04-24 14:29 37.80786 -111.53277 34912 ft 452 kts 181°
2026-04-24 14:30 37.75557 -111.52445 34906 ft 452 kts 181°
2026-04-24 14:30 37.68308 -111.51284 34908 ft 451 kts 181°
2026-04-24 14:31 37.62075 -111.50287 34907 ft 451 kts 181°
2026-04-24 14:31 37.55852 -111.49303 34901 ft 451 kts 181°
2026-04-24 14:32 37.49621 -111.48328 34899 ft 451 kts 181°
2026-04-24 14:32 37.43399 -111.47342 34898 ft 450 kts 181°
2026-04-24 14:33 37.37183 -111.46352 34892 ft 450 kts 181°
2026-04-24 14:33 37.30967 -111.45378 34886 ft 450 kts 181°
2026-04-24 14:34 37.24761 -111.44408 34891 ft 449 kts 181°
2026-04-24 14:34 37.18567 -111.43431 34917 ft 448 kts 181°
2026-04-24 14:35 37.12374 -111.42459 34942 ft 448 kts 181°
2026-04-24 14:35 37.06185 -111.41486 34971 ft 448 kts 181°
2026-04-24 14:36 37.00000 -111.40511 34991 ft 448 kts 181°
2026-04-24 14:36 36.93819 -111.39547 34995 ft 448 kts 181°
2026-04-24 14:37 36.87637 -111.38599 34994 ft 448 kts 181°
2026-04-24 14:37 36.81451 -111.37639 34982 ft 448 kts 181°
2026-04-24 14:38 36.75265 -111.36673 34951 ft 447 kts 181°
2026-04-24 14:38 36.69089 -111.35712 34925 ft 447 kts 181°
2026-04-24 14:39 36.62921 -111.34756 34894 ft 447 kts 182°
2026-04-24 14:39 36.56787 -111.33818 34870 ft 447 kts 182°
2026-04-24 14:40 36.50575 -111.32858 34870 ft 447 kts 182°
2026-04-24 14:40 36.44444 -111.31905 34874 ft 447 kts 182°
2026-04-24 14:41 36.38276 -111.30956 34876 ft 447 kts 182°
2026-04-24 14:41 36.32100 -111.30012 34876 ft 447 kts 182°
2026-04-24 14:42 36.26922 -111.29219 34870 ft 448 kts 182°
2026-04-24 14:42 36.20739 -111.28268 34880 ft 448 kts 182°
2026-04-24 14:43 36.13545 -111.27172 34887 ft 448 kts 182°
2026-04-24 14:43 36.08386 -111.26492 34889 ft 446 kts 185°
2026-04-24 14:44 36.02210 -111.25953 34889 ft 445 kts 186°
2026-04-24 14:44 35.96026 -111.25471 34893 ft 445 kts 186°
2026-04-24 14:45 35.89836 -111.24937 34892 ft 446 kts 185°
2026-04-24 14:45 35.83634 -111.24350 34893 ft 447 kts 185°
2026-04-24 14:46 35.77440 -111.23765 34893 ft 446 kts 185°
2026-04-24 14:46 35.71237 -111.23195 34898 ft 446 kts 185°
2026-04-24 14:47 35.65040 -111.22627 34897 ft 447 kts 185°
2026-04-24 14:47 35.58832 -111.22055 34898 ft 447 kts 185°
2026-04-24 14:48 35.52641 -111.21497 34899 ft 446 kts 186°
2026-04-24 14:48 35.46446 -111.20941 34899 ft 446 kts 186°
2026-04-24 14:49 35.40256 -111.20369 34902 ft 446 kts 186°
2026-04-24 14:49 35.34058 -111.19801 34901 ft 446 kts 186°
2026-04-24 14:50 35.27869 -111.19248 34904 ft 446 kts 186°
2026-04-24 14:50 35.21682 -111.18693 34908 ft 446 kts 186°
2026-04-24 14:51 35.15494 -111.18136 34912 ft 446 kts 186°
2026-04-24 14:51 35.09305 -111.17573 34912 ft 446 kts 186°
2026-04-24 14:52 35.03109 -111.17007 34915 ft 446 kts 186°
2026-04-24 14:52 34.96953 -111.16453 34920 ft 446 kts 186°
2026-04-24 14:53 34.90761 -111.15902 34925 ft 446 kts 186°
2026-04-24 14:53 34.84577 -111.15349 34925 ft 446 kts 186°
2026-04-24 14:54 34.78396 -111.14795 34928 ft 445 kts 186°
2026-04-24 14:54 34.72223 -111.14250 34927 ft 445 kts 187°
2026-04-24 14:55 34.67051 -111.13793 34926 ft 444 kts 187°
2026-04-24 14:55 34.59885 -111.13146 34913 ft 444 kts 187°
2026-04-24 14:56 34.53715 -111.12584 34929 ft 444 kts 187°
2026-04-24 14:56 34.47556 -111.12038 34956 ft 444 kts 187°
2026-04-24 14:57 34.41400 -111.11503 34983 ft 444 kts 187°
2026-04-24 14:57 34.35243 -111.10961 35003 ft 444 kts 187°
2026-04-24 14:58 34.29079 -111.10416 35009 ft 443 kts 187°
2026-04-24 14:58 34.22925 -111.09876 35005 ft 444 kts 187°
2026-04-24 14:59 34.16755 -111.09327 34989 ft 444 kts 187°
2026-04-24 14:59 34.10594 -111.08780 34972 ft 444 kts 187°
2026-04-24 15:00 34.04432 -111.08241 34948 ft 444 kts 187°
2026-04-24 15:00 33.98273 -111.07694 34921 ft 444 kts 187°
2026-04-24 15:01 33.92117 -111.07156 34919 ft 443 kts 187°
2026-04-24 15:01 33.85973 -111.06616 34915 ft 442 kts 187°
2026-04-24 15:02 33.79837 -111.06078 34924 ft 442 kts 187°
2026-04-24 15:02 33.73745 -111.05545 34916 ft 442 kts 187°
2026-04-24 15:03 33.67611 -111.05012 34915 ft 441 kts 187°
2026-04-24 15:03 33.61493 -111.04478 34917 ft 441 kts 187°
2026-04-24 15:04 33.55378 -111.03944 34918 ft 440 kts 187°
2026-04-24 15:04 33.49271 -111.03427 34909 ft 439 kts 187°
2026-04-24 15:05 33.43165 -111.02894 34916 ft 439 kts 187°
2026-04-24 15:05 33.37072 -111.02356 34916 ft 439 kts 187°
2026-04-24 15:06 33.30983 -111.01827 34910 ft 439 kts 187°
2026-04-24 15:06 33.24900 -111.01311 34902 ft 438 kts 187°
2026-04-24 15:07 33.18816 -111.00793 34892 ft 438 kts 187°
2026-04-24 15:07 33.12745 -111.00264 34897 ft 438 kts 187°
2026-04-24 15:08 33.06651 -110.99737 34909 ft 438 kts 187°
2026-04-24 15:08 33.00572 -110.99215 34908 ft 437 kts 187°
2026-04-24 15:09 32.94500 -110.98695 34914 ft 437 kts 187°
2026-04-24 15:09 32.88431 -110.98179 34921 ft 437 kts 187°
2026-04-24 15:10 32.82365 -110.97658 34924 ft 437 kts 187°
2026-04-24 15:10 32.76301 -110.97139 34927 ft 437 kts 187°
2026-04-24 15:11 32.70240 -110.96624 34936 ft 437 kts 187°
2026-04-24 15:11 32.64178 -110.96108 34941 ft 437 kts 187°
2026-04-24 15:12 32.58117 -110.95591 34950 ft 437 kts 187°
2026-04-24 15:12 32.49057 -110.94821 34963 ft 437 kts 187°
2026-04-24 15:13 32.42990 -110.94312 34970 ft 437 kts 187°
2026-04-24 15:13 32.36914 -110.93797 34991 ft 438 kts 187°
2026-04-24 15:14 32.30842 -110.93283 34999 ft 437 kts 187°
2026-04-24 15:14 32.24771 -110.92769 35009 ft 437 kts 187°
2026-04-24 15:15 32.18698 -110.92257 35010 ft 437 kts 187°
2026-04-24 15:15 32.12624 -110.91751 35014 ft 438 kts 187°
2026-04-24 15:16 32.06601 -110.91615 35012 ft 428 kts 193°
2026-04-24 15:16 32.00653 -110.91897 35003 ft 428 kts 193°
2026-04-24 15:17 31.94702 -110.92180 34978 ft 428 kts 193°
2026-04-24 15:17 31.88730 -110.92458 35178 ft 430 kts 193°
2026-04-24 15:18 31.85740 -110.92595 35380 ft 430 kts 193°
2026-04-24 15:18 31.82751 -110.92731 35585 ft 429 kts 193°
2026-04-24 15:18 31.79767 -110.92867 35784 ft 429 kts 193°
2026-04-24 15:18 31.76790 -110.93005 35975 ft 428 kts 193°
2026-04-24 15:19 31.73812 -110.93143 36189 ft 427 kts 193°
2026-04-24 15:19 31.70884 -110.93277 36391 ft 427 kts 194°
2026-04-24 15:19 31.67916 -110.93410 36618 ft 426 kts 194°
2026-04-24 15:19 31.64953 -110.93542 36831 ft 426 kts 194°
2026-04-24 15:20 31.61993 -110.93677 36972 ft 425 kts 194°
2026-04-24 15:20 31.59038 -110.93813 37007 ft 425 kts 194°
2026-04-24 15:20 31.53136 -110.94090 37034 ft 425 kts 194°
2026-04-24 15:21 31.47231 -110.94360 37057 ft 425 kts 194°
2026-04-24 15:21 31.41330 -110.94632 37064 ft 424 kts 194°
2026-04-24 15:22 31.35394 -110.94727 37049 ft 436 kts 185°
2026-04-24 15:22 31.32364 -110.94029 37039 ft 453 kts 174°
2026-04-24 15:23 31.26501 -110.90782 37005 ft 472 kts 163°
2026-04-24 15:23 31.17812 -110.85392 36966 ft 472 kts 163°
2026-04-24 15:25 31.04262 -110.77071 36914 ft 472 kts 163°
2026-04-24 15:26 30.88799 -110.67593 36926 ft 472 kts 163°
2026-04-24 15:27 30.72316 -110.57497 36936 ft 473 kts 163°
2026-04-24 15:29 30.53878 -110.46291 36945 ft 473 kts 163°
2026-04-24 15:31 30.34419 -110.34506 36937 ft 473 kts 163°
2026-04-24 15:33 30.11122 -110.20472 36967 ft 473 kts 164°
2026-04-24 15:34 29.96533 -110.11722 36969 ft 472 kts 164°
2026-04-24 15:35 29.81972 -110.03001 36959 ft 471 kts 165°
2026-04-24 15:36 29.76145 -109.99531 36952 ft 471 kts 165°
2026-04-24 15:36 29.67414 -109.94334 36942 ft 471 kts 165°
2026-04-24 15:37 29.61593 -109.90871 36939 ft 471 kts 165°
2026-04-24 15:37 29.55770 -109.87416 36938 ft 471 kts 165°
2026-04-24 15:38 29.49937 -109.83963 36938 ft 471 kts 165°
2026-04-24 15:38 29.44100 -109.80511 36957 ft 473 kts 165°
2026-04-24 15:39 29.38254 -109.77050 36957 ft 472 kts 165°
2026-04-24 15:39 29.32410 -109.73597 36954 ft 473 kts 165°
2026-04-24 15:40 29.26553 -109.70144 36950 ft 473 kts 165°
2026-04-24 15:40 29.20734 -109.66713 36969 ft 474 kts 165°
2026-04-24 15:41 29.14864 -109.63258 36975 ft 475 kts 165°
2026-04-24 15:41 29.08994 -109.59812 36971 ft 474 kts 165°
2026-04-24 15:42 29.03110 -109.56354 36957 ft 474 kts 165°
2026-04-24 15:42 28.97251 -109.52920 36964 ft 473 kts 165°
2026-04-24 15:43 28.91387 -109.49492 36966 ft 473 kts 165°
2026-04-24 15:43 28.85515 -109.46056 36959 ft 474 kts 164°
2026-04-24 15:44 28.79639 -109.42619 36970 ft 475 kts 165°
2026-04-24 15:44 28.73757 -109.39193 36980 ft 474 kts 165°
2026-04-24 15:45 28.67871 -109.35778 36990 ft 474 kts 165°
2026-04-24 15:45 28.61988 -109.32362 36986 ft 474 kts 165°
2026-04-24 15:46 28.56111 -109.28953 36981 ft 473 kts 165°
2026-04-24 15:46 28.50243 -109.25549 36988 ft 474 kts 165°
2026-04-24 15:47 28.44368 -109.22149 36986 ft 474 kts 165°
2026-04-24 15:47 28.38486 -109.18740 36995 ft 474 kts 165°
2026-04-24 15:48 28.32608 -109.15340 36993 ft 474 kts 165°
2026-04-24 15:48 28.26725 -109.11953 37001 ft 474 kts 165°
2026-04-24 15:49 28.20835 -109.08565 37001 ft 475 kts 165°
2026-04-24 15:49 28.14945 -109.05168 37005 ft 475 kts 164°
2026-04-24 15:50 28.09089 -109.01796 37002 ft 475 kts 165°
2026-04-24 15:50 28.03158 -108.98395 37019 ft 475 kts 164°
2026-04-24 15:51 27.97292 -108.95031 37007 ft 475 kts 164°
2026-04-24 15:51 27.91393 -108.91656 36998 ft 474 kts 164°
2026-04-24 15:52 27.85493 -108.88282 37001 ft 476 kts 164°
2026-04-24 15:52 27.79573 -108.84902 37003 ft 477 kts 164°
2026-04-24 15:53 27.73658 -108.81524 37005 ft 477 kts 164°
2026-04-24 15:53 27.67739 -108.78133 37017 ft 477 kts 164°
2026-04-24 15:54 27.61821 -108.74762 37014 ft 476 kts 164°
2026-04-24 15:54 27.55910 -108.71408 37007 ft 475 kts 164°
2026-04-24 15:55 27.50013 -108.68062 37009 ft 474 kts 164°
2026-04-24 15:55 27.44103 -108.64710 37012 ft 476 kts 164°
2026-04-24 15:56 27.38186 -108.61358 37013 ft 476 kts 164°
2026-04-24 15:56 27.32291 -108.58024 37003 ft 474 kts 164°
2026-04-24 15:57 27.26382 -108.54686 37012 ft 475 kts 163°
2026-04-24 15:57 27.20482 -108.51347 37009 ft 475 kts 162°
2026-04-24 15:58 27.14626 -108.48048 36992 ft 474 kts 163°
2026-04-24 15:58 27.08711 -108.44722 37015 ft 476 kts 163°
2026-04-24 15:59 27.02795 -108.41387 37009 ft 476 kts 163°
2026-04-24 15:59 26.96883 -108.38057 37000 ft 475 kts 163°
2026-04-24 16:00 26.90970 -108.34734 36998 ft 476 kts 163°
2026-04-24 16:00 26.85038 -108.31415 37003 ft 477 kts 163°
2026-04-24 16:01 26.79106 -108.28100 37005 ft 476 kts 163°
2026-04-24 16:01 26.73174 -108.24787 37011 ft 476 kts 163°
2026-04-24 16:02 26.67247 -108.21475 37012 ft 477 kts 163°
2026-04-24 16:02 26.61312 -108.18166 37011 ft 476 kts 163°
2026-04-24 16:03 26.55271 -108.15398 37018 ft 465 kts 172°
2026-04-24 16:03 26.49155 -108.13058 37017 ft 464 kts 171°
2026-04-24 16:04 26.43042 -108.10716 37014 ft 465 kts 171°
2026-04-24 16:04 26.36932 -108.08371 37014 ft 464 kts 171°
2026-04-24 16:05 26.27763 -108.04861 37013 ft 464 kts 171°
2026-04-24 16:06 26.18598 -108.01357 37009 ft 465 kts 170°
2026-04-24 16:07 26.09408 -107.97845 37004 ft 465 kts 170°
2026-04-24 16:07 26.00242 -107.94354 37006 ft 464 kts 170°
2026-04-24 16:08 25.91082 -107.90864 37003 ft 464 kts 170°
2026-04-24 16:09 25.81961 -107.87410 37000 ft 464 kts 170°
2026-04-24 16:09 25.75844 -107.85090 36997 ft 464 kts 170°
2026-04-24 16:11 25.60564 -107.79307 36985 ft 464 kts 169°
2026-04-24 16:11 25.54441 -107.76999 36984 ft 465 kts 169°
2026-04-24 16:12 25.46247 -107.73914 36997 ft 465 kts 169°
2026-04-24 16:13 25.37106 -107.70465 36993 ft 464 kts 169°
2026-04-24 16:14 25.24870 -107.65867 36993 ft 464 kts 169°
2026-04-24 16:14 25.15693 -107.62419 36986 ft 464 kts 169°
2026-04-24 16:15 25.06525 -107.58978 36986 ft 464 kts 169°
2026-04-24 16:16 24.97356 -107.55551 36988 ft 463 kts 168°
2026-04-24 16:17 24.82099 -107.49849 36997 ft 463 kts 168°
2026-04-24 16:18 24.70552 -107.43224 36998 ft 479 kts 151°
2026-04-24 16:19 24.62344 -107.36963 36993 ft 478 kts 151°
2026-04-24 16:20 24.54170 -107.30753 36989 ft 478 kts 151°
2026-04-24 16:20 24.45968 -107.24508 36981 ft 478 kts 151°
2026-04-24 16:21 24.37775 -107.18279 36980 ft 478 kts 151°
2026-04-24 16:22 24.32307 -107.14137 36982 ft 478 kts 151°
2026-04-24 16:22 24.24099 -107.07941 36982 ft 477 kts 151°
2026-04-24 16:23 24.18623 -107.03821 36978 ft 477 kts 151°
2026-04-24 16:24 24.10420 -106.97627 36992 ft 477 kts 151°
2026-04-24 16:24 24.04956 -106.93510 37008 ft 477 kts 152°
2026-04-24 16:25 23.99501 -106.89397 37011 ft 476 kts 152°
2026-04-24 16:25 23.94050 -106.85302 37006 ft 475 kts 152°
2026-04-24 16:26 23.85902 -106.79183 36999 ft 473 kts 152°
2026-04-24 16:27 23.77774 -106.73087 37001 ft 472 kts 152°
2026-04-24 16:27 23.72365 -106.69033 36995 ft 471 kts 152°
2026-04-24 16:28 23.66964 -106.64984 36993 ft 471 kts 152°
2026-04-24 16:28 23.58863 -106.58940 36988 ft 470 kts 152°
2026-04-24 16:29 23.53469 -106.54910 36990 ft 470 kts 152°
2026-04-24 16:30 23.42684 -106.46867 36991 ft 470 kts 152°
2026-04-24 16:30 23.37292 -106.42863 36996 ft 469 kts 152°
2026-04-24 16:31 23.31898 -106.38856 36996 ft 469 kts 152°
2026-04-24 16:31 23.26547 -106.34885 37000 ft 469 kts 152°
2026-04-24 16:32 23.21162 -106.30890 37002 ft 468 kts 152°
2026-04-24 16:32 23.15708 -106.27065 37000 ft 461 kts 160°
2026-04-24 16:33 23.09830 -106.24451 37001 ft 456 kts 165°
2026-04-24 16:33 23.03921 -106.21944 36999 ft 456 kts 165°
2026-04-24 16:34 22.98019 -106.19435 36994 ft 455 kts 165°
2026-04-24 16:34 22.92125 -106.16932 36986 ft 455 kts 165°
2026-04-24 16:35 22.86232 -106.14426 36985 ft 454 kts 165°
2026-04-24 16:35 22.80351 -106.11928 36977 ft 454 kts 165°
2026-04-24 16:36 22.74472 -106.09448 36978 ft 453 kts 165°
2026-04-24 16:36 22.68600 -106.06967 36973 ft 453 kts 164°
2026-04-24 16:37 22.62731 -106.04483 36971 ft 452 kts 164°
2026-04-24 16:37 22.56866 -106.02008 36969 ft 452 kts 164°
2026-04-24 16:38 22.50999 -105.99534 36966 ft 452 kts 164°
2026-04-24 16:38 22.45139 -105.97065 36960 ft 452 kts 164°
2026-04-24 16:39 22.39267 -105.94598 36177 ft 458 kts 164°
2026-04-24 16:39 22.36280 -105.93349 34766 ft 464 kts 163°
2026-04-24 16:39 22.33246 -105.92081 33467 ft 466 kts 163°
2026-04-24 16:40 22.30255 -105.90823 33058 ft 456 kts 163°
2026-04-24 16:40 22.27310 -105.89581 32455 ft 453 kts 163°
2026-04-24 16:40 22.24386 -105.88350 31855 ft 451 kts 162°
2026-04-24 16:40 22.21468 -105.87124 31258 ft 449 kts 162°
2026-04-24 16:41 22.18564 -105.85902 30668 ft 447 kts 162°
2026-04-24 16:41 22.15708 -105.84702 30103 ft 446 kts 162°
2026-04-24 16:41 22.12821 -105.83492 29452 ft 444 kts 162°
2026-04-24 16:41 22.09955 -105.82291 28892 ft 440 kts 162°
2026-04-24 16:42 22.07112 -105.81099 28344 ft 437 kts 161°
2026-04-24 16:42 22.04289 -105.79916 27801 ft 433 kts 161°
2026-04-24 16:42 22.01490 -105.78744 27280 ft 430 kts 161°
2026-04-24 16:42 21.98713 -105.77585 26765 ft 427 kts 161°
2026-04-24 16:43 21.95955 -105.76437 26262 ft 423 kts 161°
2026-04-24 16:43 21.93217 -105.75297 25765 ft 421 kts 161°
2026-04-24 16:43 21.90500 -105.74163 25292 ft 417 kts 161°
2026-04-24 16:43 21.87801 -105.73034 24817 ft 415 kts 161°
2026-04-24 16:44 21.85117 -105.71911 24354 ft 412 kts 160°
2026-04-24 16:44 21.82453 -105.70794 23890 ft 410 kts 160°
2026-04-24 16:44 21.79792 -105.69681 23385 ft 409 kts 161°
2026-04-24 16:44 21.77087 -105.68824 22893 ft 403 kts 171°
2026-04-24 16:45 21.74341 -105.68278 22425 ft 399 kts 171°
2026-04-24 16:45 21.71619 -105.67742 21958 ft 396 kts 171°
2026-04-24 16:45 21.68912 -105.67205 21493 ft 394 kts 171°
2026-04-24 16:45 21.66227 -105.66671 21021 ft 391 kts 171°
2026-04-24 16:46 21.63555 -105.66137 20538 ft 390 kts 171°
2026-04-24 16:46 21.60893 -105.65608 20070 ft 388 kts 171°
2026-04-24 16:46 21.58245 -105.65083 19593 ft 386 kts 170°
2026-04-24 16:46 21.55606 -105.64560 19122 ft 385 kts 170°
2026-04-24 16:47 21.52974 -105.64040 18646 ft 384 kts 170°
2026-04-24 16:47 21.50350 -105.63521 18168 ft 383 kts 170°
2026-04-24 16:47 21.47732 -105.63002 17680 ft 381 kts 170°
2026-04-24 16:47 21.45132 -105.62484 17216 ft 378 kts 170°
2026-04-24 16:48 21.42554 -105.61970 16767 ft 376 kts 170°
2026-04-24 16:48 21.39994 -105.61460 16342 ft 373 kts 170°
2026-04-24 16:48 21.37451 -105.60959 15920 ft 370 kts 170°
2026-04-24 16:48 21.34929 -105.60461 15501 ft 368 kts 170°
2026-04-24 16:49 21.32419 -105.59964 15084 ft 366 kts 170°
2026-04-24 16:49 21.29924 -105.59471 14670 ft 364 kts 170°
2026-04-24 16:49 21.27442 -105.58981 14252 ft 362 kts 170°
2026-04-24 16:49 21.24973 -105.58495 13847 ft 360 kts 170°
2026-04-24 16:50 21.23339 -105.58175 13546 ft 359 kts 170°
2026-04-24 16:50 21.20074 -105.57533 12981 ft 354 kts 170°
2026-04-24 16:50 21.17662 -105.57057 12586 ft 350 kts 170°
2026-04-24 16:50 21.15279 -105.56585 12188 ft 347 kts 170°
2026-04-24 16:51 21.12918 -105.56115 11790 ft 343 kts 170°
2026-04-24 16:51 21.10583 -105.55653 11403 ft 340 kts 171°
2026-04-24 16:51 21.08269 -105.55197 11021 ft 336 kts 171°
2026-04-24 16:51 21.05980 -105.54747 10638 ft 333 kts 171°
2026-04-24 16:52 21.03712 -105.54303 10270 ft 329 kts 171°
2026-04-24 16:52 21.01498 -105.53870 10145 ft 317 kts 171°
2026-04-24 16:52 20.99364 -105.53450 9999 ft 307 kts 171°
2026-04-24 16:52 20.97291 -105.53038 9735 ft 302 kts 171°
2026-04-24 16:53 20.95236 -105.52631 9431 ft 299 kts 171°
2026-04-24 16:53 20.93193 -105.52230 9118 ft 298 kts 171°
2026-04-24 16:53 20.91157 -105.51832 8804 ft 297 kts 171°
2026-04-24 16:53 20.89131 -105.51433 8490 ft 295 kts 171°
2026-04-24 16:54 20.87138 -105.51042 8184 ft 294 kts 171°
2026-04-24 16:54 20.85129 -105.50651 7877 ft 293 kts 171°
2026-04-24 16:54 20.83126 -105.50261 7559 ft 292 kts 171°
2026-04-24 16:54 20.81133 -105.49870 7252 ft 291 kts 171°
2026-04-24 16:55 20.79146 -105.49478 6960 ft 290 kts 171°
2026-04-24 16:55 20.77165 -105.49088 6660 ft 289 kts 171°
2026-04-24 16:55 20.75195 -105.48700 6351 ft 288 kts 171°
2026-04-24 16:55 20.73228 -105.48314 6033 ft 287 kts 171°
2026-04-24 16:56 20.71273 -105.47929 5748 ft 283 kts 171°
2026-04-24 16:56 20.69380 -105.47557 5620 ft 269 kts 171°
2026-04-24 16:56 20.67590 -105.47206 5296 ft 257 kts 170°
2026-04-24 16:56 20.66414 -105.46976 4995 ft 253 kts 170°
2026-04-24 16:57 20.64710 -105.46642 4714 ft 248 kts 170°
2026-04-24 16:57 20.63031 -105.46217 4448 ft 248 kts 158°
2026-04-24 16:57 20.61128 -105.44929 4086 ft 245 kts 136°
2026-04-24 16:57 20.59886 -105.43694 3810 ft 243 kts 136°
2026-04-24 16:58 20.59065 -105.42881 3628 ft 242 kts 136°
2026-04-24 16:58 20.57840 -105.41665 3352 ft 239 kts 134°
2026-04-24 16:58 20.56985 -105.40193 3079 ft 234 kts 103°
2026-04-24 16:58 20.57003 -105.38504 2820 ft 228 kts 71°
2026-04-24 16:59 20.57817 -105.37097 2567 ft 221 kts 46°
2026-04-24 16:59 20.58832 -105.35935 2313 ft 208 kts 46°
2026-04-24 16:59 20.60707 -105.33787 1896 ft 184 kts 46°
2026-04-24 17:00 20.61550 -105.32820 1673 ft 169 kts 46°
2026-04-24 17:00 20.63021 -105.31135 1245 ft 146 kts 46°
2026-04-24 17:00 20.63707 -105.30352 1042 ft 143 kts 46°
2026-04-24 17:01 20.65053 -105.28811 640 ft 141 kts 46°
2026-04-24 17:01 20.65722 -105.28047 433 ft 140 kts 46°
2026-04-24 17:02 20.67048 -105.26525 67 ft 139 kts 46°
2026-04-24 17:02 20.67619 -105.25858 29 ft 87 kts 48°
2026-04-24 17:02 20.67885 -105.25562 31 ft 36 kts 46°
2026-04-24 17:02 20.68035 -105.25393 30 ft 21 kts 51°
2026-04-24 17:03 20.67911 -105.25220 29 ft 18 kts 136°
2026-04-24 17:03 20.67825 -105.25135 29 ft 13 kts 133°
2026-04-24 17:03 20.67854 -105.25064 29 ft 11 kts 47°
2026-04-24 17:04 20.67902 -105.25008 29 ft 10 kts 47°
2026-04-24 17:04 20.68000 -105.24880 29 ft 12 kts 54°
2026-04-24 17:04 20.68008 -105.24803 29 ft 10 kts 94°
2026-04-24 17:05 20.68005 -105.24754 29 ft 0 kts 94°